Wind_Speed
14 19 22 26 30 35 39 42 44 45 46 47 50 53 54 60 64 67 70 75 79 88 87 84 81 80 78 72 64 60 62 59 56 58 59 57 55 52 38 36 30 32 36 38 36 33 34 34 32 31 34 36 36 38
11 15 19 24 29 33 37 40 42 44 43 44 46 49 53 58 60 63 67 70 75 80 82 82 76 77 72 68 67 64 60 59 59 62 61 59 53 45 39 36 32 35 38 38 38 34 35 36 37 38 38 38 40 41
14 16 18 22 27 32 36 38 39 40 41 43 46 51 56 56 60 63 66 69 71 75 71 70 70 72 74 69 66 65 62 63 60 60 59 54 50 48 45 43 34 36 39 41 40 37 39 41 41 42 42 41 42 45
16 17 20 24 28 33 38 40 39 41 43 46 52 57 61 62 63 64 64 66 68 67 63 63 62 64 64 63 63 62 60 61 60 54 46 45 36 38 39 42 39 38 40 41 42 41 41 44 45 46 45 45 45 47
22 23 23 25 29 33 36 38 39 40 45 51 58 63 66 68 68 65 63 60 63 61 57 56 52 51 53 52 52 48 49 49 46 50 48 42 42 41 43 44 41 43 45 43 43 43 43 45 50 50 50 50 50 52
25 24 29 30 33 33 33 35 39 43 50 57 60 65 67 66 63 61 61 57 54 52 48 45 42 43 40 40 38 40 40 45 47 49 51 46 45 52 54 49 48 47 47 47 48 49 49 48 49 52 52 52 54 55
27 25 26 29 34 38 39 42 46 50 55 60 64 64 65 63 58 53 51 51 49 47 39 33 31 35 39 39 39 34 28 36 46 44 50 56 53 54 51 51 51 49 50 51 50 52 53 52 52 55 57 59 60 63
29 28 30 33 35 39 42 47 52 57 62 66 67 66 63 61 59 54 49 47 40 46 56 54 45 45 37 37 33 41 36 42 41 47 54 62 59 57 54 52 51 51 55 53 53 54 56 57 57 59 61 63 66 67
38 33 32 37 41 45 51 56 62 67 71 73 72 69 67 63 59 52 53 59 47 48 49 53 46 47 48 47 52 45 49 55 54 54 56 60 65 65 58 58 59 60 57 54 55 57 59 60 62 63 64 66 67 69
43 41 39 37 44 48 56 62 66 71 76 81 80 79 75 64 61 60 56 54 65 53 52 52 56 57 54 58 58 54 57 64 64 57 60 60 57 60 58 60 61 61 61 59 59 60 62 64 66 67 69 70 72 74
40 41 39 38 38 45 58 56 60 65 75 79 81 79 71 64 62 58 59 60 57 51 55 55 54 64 65 59 62 63 60 58 58 57 58 58 58 60 63 66 66 64 64 63 64 65 65 66 68 69 71 73 74 76
38 37 37 38 38 39 44 58 67 69 69 72 69 71 70 75 67 72 70 65 64 67 61 58 55 49 45 44 45 49 55 57 55 55 57 55 59 64 70 72 71 68 67 66 67 67 67 67 69 73 74 75 77 78
36 32 35 35 34 32 31 37 50 51 56 63 60 55 60 57 65 62 61 61 63 60 55 55 50 50 50 49 49 55 54 55 60 60 57 58 64 69 72 74 75 71 71 71 69 68 69 70 71 71 73 76 79 82
34 38 35 30 31 33 37 25 28 30 22 22 33 36 33 46 55 61 60 60 55 55 54 56 57 55 53 52 55 58 55 56 59 62 63 63 66 70 73 72 72 72 73 73 72 72 70 70 71 75 78 81 83 85
25 28 31 35 34 31 31 34 34 33 25 21 19 19 37 49 50 56 55 58 60 61 61 63 65 61 61 59 60 59 56 52 54 57 59 61 64 66 68 68 70 71 71 71 71 72 74 76 78 80 82 84 86 87
21 21 18 21 25 27 27 29 30 33 33 30 32 32 40 50 58 53 56 60 63 63 63 63 65 66 62 58 58 57 54 50 53 56 57 59 62 63 65 68 71 72 74 75 74 75 76 78 82 84 84 87 90 94
16 18 18 19 20 20 19 18 18 18 21 26 27 31 37 42 47 51 58 59 59 61 61 61 59 57 53 52 54 56 57 56 56 57 59 61 64 66 67 68 69 71 75 79 81 82 84 87 88 90 92 94 94 94
10 10 14 16 15 17 19 22 23 24 23 21 19 21 24 28 35 41 44 47 48 51 52 53 52 51 50 49 50 51 53 54 56 56 57 58 62 66 71 75 79 81 83 85 88 89 91 93 94 92 92 94 97 101
15 15 16 15 15 15 19 22 23 24 25 26 28 30 33 35 36 37 36 36 38 41 44 46 48 49 50 52 54 56 58 60 60 58 60 63 66 68 70 72 73 76 78 80 83 85 87 90 93 95 98 102 105 107
25 25 25 25 25 23 24 25 28 31 32 32 33 36 38 38 38 39 41 42 43 45 47 49 51 53 56 58 60 61 63 63 64 65 67 69 70 72 73 75 77 80 82 85 88 91 93 97 100 102 104 104 105 106
32 33 34 34 34 33 33 34 35 34 35 38 41 41 41 43 45 48 49 50 51 53 55 56 57 59 60 62 63 65 67 69 71 73 76 78 79 80 82 84 86 88 91 94 96 98 99 100 101 102 102 102 102 102
41 40 42 43 44 46 44 42 42 44 45 44 45 46 48 50 52 54 55 56 56 58 60 62 65 67 70 72 74 76 77 78 79 81 82 83 85 86 87 88 89 91 91 91 91 93 94 96 97 97 97 97 97 95
47 47 46 47 49 48 49 51 53 53 52 51 51 52 53 54 55 55 57 57 58 59 61 62 64 66 69 72 74 76 78 80 81 82 83 83 84 84 84 85 86 87 90 91 91 92 93 92 92 91 89 87 86 86
47 49 49 49 48 51 51 52 51 50 49 48 47 49 51 54 56 58 61 64 66 68 69 69 69 70 71 72 73 73 74 76 77 78 79 81 83 85 87 88 89 90 90 89 88 86 84 84 85 84 84 83 83 82
51 52 52 52 55 55 55 57 59 58 56 56 57 58 58 59 60 60 62 63 62 63 65 67 68 68 69 71 73 74 76 77 79 81 82 83 84 85 86 85 85 85 85 83 81 79 78 79 79 78 78 77 76 76
54 55 56 56 57 59 60 59 60 60 60 60 60 60 60 61 62 63 64 65 65 67 67 68 69 70 71 72 74 74 76 77 79 81 82 82 82 81 80 79 77 76 76 76 76 76 76 76 74 73 72 71 71 71
47 48 49 50 51 52 54 56 57 56 57 57 55 56 59 60 61 62 63 64 65 65 65 66 67 67 68 68 69 70 70 71 72 72 71 72 72 73 73 73 73 73 72 72 71 70 69 69 68 68 68 68 67 66
38 39 41 43 44 45 46 46 45 48 46 44 47 49 49 50 51 51 50 51 52 53 54 55 57 57 57 58 59 60 61 62 63 64 66 66 67 68 68 68 68 68 67 66 66 66 66 66 65 65 64 64 64 63
37 39 39 40 40 40 41 41 41 40 41 43 44 45 46 47 48 48 48 48 48 48 50 51 52 52 53 54 56 57 58 59 60 61 61 61 61 61 62 62 62 63 63 64 63 63 62 62 62 62 61 60 60 60
35 35 36 37 37 38 38 38 39 39 40 41 43 43 43 44 44 45 45 46 46 46 46 47 48 48 48 49 50 51 51 52 53 54 55 57 58 58 58 58 58 58 58 57 57 57 57 58 58 58 58 57 56 56
33 34 34 32 32 32 33 34 34 34 34 35 36 37 38 40 40 40 42 43 42 42 43 44 44 45 45 45 45 46 48 48 49 50 50 51 51 52 53 54 54 55 55 56 56 56 56 55 54 53 53 51 51 51
32 30 30 29 30 31 31 31 32 31 30 33 34 34 35 36 36 36 37 39 39 39 39 40 40 41 41 41 42 42 43 44 45 46 47 48 49 50 51 52 53 53 53 52 52 51 51 50 50 49 48 46 45 45
27 26 27 28 28 27 27 28 28 28 29 29 29 30 30 32 32 33 34 34 34 35 35 36 36 37 38 39 41 42 43 43 45 46 46 46 46 46 47 47 46 46 47 47 48 47 46 46 45 45 44 43 42 41
Wind_Direction
187 190 195 199 201 203 203 201 202 205 205 203 203 203 200 203 203 207 210 213 216 219 221 221 219 222 225 227 226 229 239 247 254 257 262 271 276 276 268 255 254 261 253 255 261 263 256 263 271 269 265 264 266 270
164 176 181 186 191 191 191 191 193 196 196 195 191 190 190 192 194 197 198 206 210 213 219 220 219 222 224 224 224 230 239 244 249 255 259 267 271 261 266 259 259 258 253 254 260 263 258 259 264 266 266 268 270 271
122 143 162 169 173 176 178 181 185 188 187 185 180 180 181 178 181 182 191 197 203 209 213 216 218 219 221 224 228 237 242 244 248 253 258 261 258 259 261 260 262 262 255 254 259 262 258 256 260 265 268 270 271 274
109 124 136 148 160 164 167 172 177 180 177 174 173 170 167 170 173 177 184 193 200 204 207 211 215 218 220 224 232 235 238 240 243 250 241 247 240 243 252 257 262 263 258 254 256 258 259 258 258 263 267 270 272 273
100 116 130 140 148 157 163 168 170 168 167 164 165 166 166 169 169 171 179 188 194 197 202 206 209 212 217 219 223 225 230 234 234 235 240 236 232 236 245 256 261 265 261 256 253 257 260 261 261 261 265 269 273 277
92 109 121 130 136 142 150 156 157 157 159 160 161 163 164 163 164 170 177 183 186 191 194 198 201 204 205 199 201 210 217 222 228 232 231 223 235 241 245 252 257 261 262 258 257 257 260 262 264 266 266 268 271 273
96 106 118 126 131 136 142 148 151 154 155 155 156 157 156 157 157 163 168 175 178 181 172 185 182 185 169 189 210 218 209 228 237 236 232 231 238 239 244 247 254 259 261 258 259 261 262 264 266 266 267 269 270 273
96 108 120 127 132 136 141 145 146 147 148 149 148 147 145 148 154 156 163 168 171 176 171 187 184 191 186 185 170 224 214 243 239 232 230 231 237 238 242 248 254 257 260 259 260 262 263 266 268 270 272 273 275 279
94 99 117 127 133 138 139 142 145 144 144 143 142 141 143 144 145 150 159 160 177 179 183 186 184 188 196 208 205 187 202 220 232 235 235 235 235 238 243 248 253 257 259 260 262 264 266 268 270 272 274 277 281 283
89 100 110 124 131 134 138 141 143 145 145 143 142 142 139 140 151 159 163 164 175 191 180 190 194 198 203 206 208 213 219 226 235 238 239 243 239 239 242 245 250 255 259 262 264 265 267 270 273 275 278 281 283 285
90 91 96 104 115 132 138 140 146 151 153 151 149 142 148 155 172 172 178 179 187 189 192 200 198 200 206 210 215 220 225 232 234 236 243 246 242 239 241 244 250 255 259 264 268 270 272 274 277 279 280 281 284 285
102 104 100 104 112 125 142 149 149 149 152 158 161 159 162 173 177 182 186 187 191 196 203 204 208 211 221 228 228 235 236 236 238 243 251 255 248 246 246 247 251 256 261 266 270 272 275 277 277 278 280 282 284 285
115 114 114 112 109 123 131 149 159 158 162 163 166 175 183 182 183 183 187 192 199 202 202 204 212 219 227 234 238 242 249 249 248 248 251 251 247 248 251 252 254 257 263 268 274 274 274 275 277 279 281 281 283 284
106 123 130 132 132 135 152 152 156 166 165 165 176 182 188 190 186 189 195 199 196 198 204 212 213 214 222 234 241 247 254 254 251 250 252 253 253 251 252 254 255 259 265 271 273 273 274 275 276 278 280 283 286 287
107 112 121 131 143 153 159 164 171 177 180 187 193 194 192 192 198 199 202 204 208 213 217 218 222 232 243 251 254 256 256 255 251 250 250 252 253 256 258 261 263 266 268 269 271 272 274 276 279 281 282 284 287 289
119 123 122 127 133 140 149 160 171 181 191 190 195 203 200 202 204 211 215 219 222 222 225 228 236 244 250 252 250 252 253 254 252 252 254 256 256 258 260 263 266 268 270 271 273 276 277 278 279 281 284 287 289 291
135 141 148 151 153 159 163 164 164 168 180 187 195 201 206 210 214 216 219 223 227 231 234 237 240 242 245 246 248 249 250 252 254 257 259 260 260 262 264 264 265 266 267 270 273 275 276 279 282 285 287 290 291 292
175 167 160 165 177 186 183 183 185 190 196 200 207 216 219 221 221 221 222 226 229 231 234 238 241 244 247 249 250 251 253 255 257 256 258 260 263 265 266 266 267 269 271 273 274 276 279 281 284 286 287 287 288 290
211 213 211 214 215 202 206 216 214 212 214 216 216 215 216 219 225 231 235 238 239 239 241 243 245 248 250 251 252 255 256 257 255 255 259 262 264 266 267 269 271 273 274 276 277 279 281 282 283 284 285 287 288 290
234 232 233 236 236 235 228 222 221 224 229 231 232 233 233 234 236 239 243 245 247 248 249 251 253 254 255 257 258 260 261 263 264 264 265 267 268 270 272 273 273 274 275 277 277 279 280 282 283 284 286 288 289 290
247 244 239 242 242 242 240 236 237 238 239 236 234 236 240 241 241 242 243 243 245 247 249 251 253 255 256 258 260 261 262 263 263 264 265 267 269 271 272 273 275 277 278 279 280 281 283 284 285 285 287 288 289 290
251 251 247 247 249 250 252 251 249 250 249 248 247 243 242 242 243 245 247 249 251 252 253 254 256 257 259 259 261 263 265 267 269 270 272 273 273 274 275 276 278 279 281 281 283 284 285 286 287 287 288 289 290 292
253 255 256 256 253 254 254 253 255 258 259 257 256 256 256 258 257 255 254 254 255 255 257 259 262 263 264 264 265 266 267 269 270 272 274 275 276 277 278 279 280 281 282 284 285 285 286 287 289 290 291 293 295 296
262 262 263 262 259 258 260 262 264 263 265 264 264 265 264 263 261 259 259 259 259 262 264 265 266 266 267 268 268 270 272 273 274 275 276 278 280 282 283 284 286 287 287 288 289 290 290 291 292 293 294 294 295 295
267 266 264 264 265 264 264 264 265 265 265 265 267 269 269 269 268 268 268 267 267 267 267 266 267 267 267 269 271 273 275 276 277 278 279 280 282 283 284 285 286 287 288 290 291 292 293 293 294 294 294 294 294 295
265 265 265 264 264 264 265 265 264 264 265 266 267 267 267 266 266 266 265 265 265 266 266 266 267 269 270 271 273 274 276 277 279 280 282 283 284 285 286 288 289 290 290 291 291 292 293 293 294 294 294 295 296 296
258 259 260 260 259 261 263 263 265 267 267 266 265 265 266 266 267 268 269 270 270 271 273 273 274 275 276 277 278 279 280 281 281 282 284 285 286 288 288 289 289 290 291 292 292 293 294 294 295 296 296 296 297 298
263 262 262 263 264 265 265 267 268 267 271 271 268 269 270 271 273 275 276 276 277 278 278 278 278 278 278 279 280 281 282 283 284 284 285 286 286 287 288 289 290 291 293 294 294 296 296 297 297 297 298 298 298 299
264 265 266 266 268 270 271 271 274 276 273 272 275 277 278 280 279 279 279 278 277 276 277 277 277 278 279 280 281 282 282 283 284 285 286 287 288 289 291 292 293 294 295 295 295 296 297 297 298 298 299 300 300 300
266 267 268 269 271 273 275 273 271 269 270 271 272 273 274 275 275 276 277 277 279 280 281 281 282 282 282 282 284 285 286 287 288 289 290 290 292 293 293 293 293 293 294 295 297 298 299 300 301 301 301 301 302 302
270 270 272 276 278 278 276 275 274 274 274 274 275 275 276 275 276 277 278 280 281 282 283 283 284 285 286 288 288 288 288 289 289 290 291 292 292 293 295 296 298 300 301 302 302 302 302 302 302 302 302 302 302 301
274 277 276 276 276 274 275 277 278 279 277 277 278 278 277 278 279 281 282 284 285 285 285 285 287 287 289 290 291 293 293 293 294 295 296 297 298 299 299 300 300 301 302 302 302 303 303 303 303 303 303 304 304 303
275 276 276 275 276 280 282 281 281 281 282 280 277 277 280 283 285 285 285 284 285 287 288 289 291 292 293 293 294 295 296 298 298 298 300 300 301 301 301 301 302 303 304 305 305 305 305 305 306 306 307 308 308 308
Height
10025 10030 10037 10045 10054 10063 10074 10086 10098 10109 10121 10134 10149 10165 10185 10202 10223 10243 10266 10287 10311 10329 10344 10365 10382 10398 10408 10426 10446 10457 10459 10470 10476 10478 10480 10485 10485 10487 10490 10489 10493 10496 10497 10498 10502 10504 10504 10503 10503 10503 10501 10499 10500 10500
10028 10032 10037 10043 10050 10059 10070 10082 10093 10104 10116 10130 10144 10161 10176 10194 10214 10234 10258 10282 10301 10319 10338 10354 10377 10391 10409 10420 10430 10442 10452 10456 10462 10464 10469 10474 10476 10477 10480 10482 10484 10485 10488 10491 10493 10497 10496 10494 10492 10491 10490 10492 10493 10492
10031 10034 10039 10044 10051 10059 10069 10080 10092 10103 10114 10127 10140 10154 10170 10191 10210 10231 10251 10271 10292 10310 10327 10349 10365 10380 10394 10409 10423 10431 10439 10446 10453 10455 10458 10461 10465 10471 10472 10472 10475 10478 10479 10481 10485 10488 10487 10485 10483 10481 10481 10483 10483 10481
10039 10041 10044 10048 10054 10061 10071 10082 10092 10102 10113 10125 10137 10153 10169 10188 10206 10228 10251 10270 10286 10306 10324 10341 10357 10371 10386 10399 10410 10421 10426 10431 10438 10443 10445 10450 10455 10458 10462 10465 10467 10467 10471 10473 10474 10476 10476 10475 10473 10472 10471 10471 10470 10468
10050 10051 10054 10058 10064 10071 10078 10085 10094 10104 10116 10128 10142 10157 10173 10190 10207 10227 10247 10267 10284 10304 10322 10336 10351 10365 10376 10388 10397 10405 10414 10420 10428 10431 10434 10439 10444 10446 10451 10457 10460 10458 10458 10462 10463 10463 10464 10465 10463 10463 10462 10460 10457 10454
10064 10065 10066 10070 10074 10080 10087 10095 10104 10113 10124 10137 10152 10168 10182 10198 10216 10234 10250 10271 10290 10305 10319 10335 10350 10361 10372 10381 10386 10395 10403 10410 10417 10422 10426 10429 10433 10436 10439 10447 10448 10448 10448 10447 10448 10451 10451 10451 10452 10452 10450 10448 10445 10442
10078 10078 10080 10083 10086 10090 10096 10104 10113 10123 10135 10148 10162 10176 10192 10209 10227 10249 10269 10281 10292 10306 10319 10330 10344 10358 10366 10380 10383 10393 10400 10405 10410 10414 10416 10420 10419 10423 10431 10437 10436 10437 10436 10434 10434 10434 10436 10438 10438 10437 10435 10433 10430 10426
10092 10093 10094 10096 10098 10102 10108 10115 10123 10134 10145 10157 10170 10186 10203 10218 10231 10248 10270 10284 10298 10308 10316 10328 10338 10348 10360 10374 10384 10391 10393 10398 10400 10402 10406 10409 10411 10417 10422 10426 10424 10423 10422 10422 10422 10421 10422 10422 10422 10420 10419 10416 10413 10411
10107 10107 10108 10110 10113 10117 10122 10128 10135 10142 10153 10166 10179 10195 10210 10225 10241 10257 10271 10286 10298 10303 10312 10326 10333 10344 10351 10363 10375 10378 10383 10382 10387 10392 10393 10395 10402 10406 10413 10412 10408 10409 10411 10409 10408 10408 10408 10408 10406 10405 10402 10400 10398 10393
10124 10125 10127 10128 10130 10136 10140 10144 10149 10157 10166 10177 10187 10201 10216 10234 10246 10256 10271 10281 10288 10299 10309 10317 10325 10334 10343 10348 10357 10367 10371 10372 10375 10378 10380 10384 10391 10394 10397 10399 10396 10394 10393 10395 10396 10396 10394 10393 10391 10389 10386 10383 10378 10373
10143 10144 10144 10148 10154 10156 10159 10166 10171 10177 10182 10189 10197 10210 10223 10238 10244 10257 10265 10273 10284 10290 10299 10309 10316 10324 10329 10338 10345 10350 10356 10359 10361 10366 10367 10375 10380 10381 10381 10382 10382 10381 10380 10380 10380 10379 10379 10377 10375 10373 10369 10364 10360 10354
10164 10166 10169 10173 10175 10178 10180 10183 10185 10191 10200 10207 10215 10217 10225 10236 10243 10248 10257 10269 10277 10286 10295 10302 10309 10317 10323 10330 10335 10340 10343 10346 10351 10357 10359 10365 10367 10366 10366 10366 10366 10368 10368 10367 10365 10364 10363 10361 10358 10353 10349 10345 10339 10334
10179 10180 10184 10189 10194 10197 10199 10202 10202 10205 10212 10218 10224 10230 10234 10239 10245 10254 10262 10270 10279 10287 10294 10302 10308 10312 10318 10324 10329 10331 10334 10339 10343 10347 10350 10352 10351 10350 10350 10352 10354 10353 10352 10352 10352 10351 10347 10344 10339 10335 10331 10325 10319 10313
10196 10197 10196 10200 10205 10212 10214 10215 10219 10222 10225 10227 10232 10237 10242 10248 10254 10259 10265 10273 10283 10289 10294 10297 10302 10308 10314 10318 10322 10324 10327 10328 10331 10336 10337 10334 10335 10336 10336 10337 10338 10337 10337 10336 10335 10332 10328 10324 10320 10315 10310 10304 10299 10292
10200 10205 10210 10211 10212 10216 10223 10229 10231 10232 10234 10238 10241 10245 10249 10253 10258 10263 10269 10275 10280 10284 10287 10293 10297 10301 10305 10308 10311 10313 10315 10319 10320 10321 10321 10320 10320 10321 10322 10323 10322 10321 10319 10318 10317 10313 10309 10304 10298 10294 10288 10283 10277 10270
10209 10211 10212 10215 10219 10224 10228 10230 10233 10237 10240 10242 10245 10248 10251 10256 10260 10264 10269 10274 10277 10280 10283 10288 10292 10295 10296 10298 10299 10300 10302 10304 10304 10305 10306 10307 10306 10307 10308 10307 10304 10302 10302 10299 10296 10292 10288 10282 10276 10271 10266 10260 10253 10246
10213 10216 10219 10220 10221 10223 10226 10231 10236 10240 10243 10244 10244 10246 10248 10251 10255 10259 10262 10265 10270 10274 10277 10280 10281 10282 10284 10286 10288 10288 10289 10289 10291 10291 10292 10292 10292 10293 10292 10290 10287 10285 10282 10279 10274 10270 10265 10259 10254 10250 10244 10238 10230 10222
10212 10216 10219 10222 10225 10227 10229 10230 10232 10234 10237 10241 10245 10248 10251 10253 10255 10256 10257 10259 10263 10266 10268 10270 10271 10272 10274 10275 10275 10275 10275 10275 10276 10277 10277 10278 10278 10276 10274 10270 10267 10265 10262 10258 10253 10248 10243 10237 10232 10228 10220 10213 10206 10198
10209 10212 10216 10218 10220 10223 10226 10229 10231 10232 10235 10237 10239 10242 10244 10247 10249 10251 10253 10255 10256 10257 10258 10258 10258 10259 10259 10259 10260 10259 10258 10258 10258 10261 10263 10261 10258 10256 10253 10250 10247 10244 10240 10236 10232 10226 10220 10214 10208 10202 10196 10188 10179 10171
10204 10207 10209 10211 10214 10216 10218 10220 10222 10224 10226 10228 10231 10233 10235 10236 10237 10238 10240 10242 10242 10243 10243 10243 10244 10244 10244 10244 10244 10244 10243 10243 10244 10244 10243 10241 10239 10236 10234 10230 10226 10221 10217 10213 10208 10202 10196 10190 10183 10175 10168 10162 10155 10144
10197 10200 10202 10203 10205 10207 10208 10210 10211 10212 10215 10217 10218 10220 10221 10222 10223 10225 10227 10229 10229 10229 10229 10228 10228 10229 10228 10228 10227 10227 10225 10224 10223 10222 10220 10218 10217 10214 10210 10206 10202 10198 10193 10187 10181 10174 10168 10163 10157 10148 10141 10135 10128 10118
10187 10189 10191 10193 10194 10195 10196 10198 10200 10200 10201 10203 10204 10206 10207 10208 10209 10209 10211 10211 10212 10211 10211 10210 10210 10209 10209 10208 10207 10206 10205 10203 10201 10198 10196 10194 10190 10187 10183 10180 10175 10170 10166 10162 10156 10149 10142 10135 10128 10121 10115 10108 10100 10092
10174 10176 10178 10179 10180 10181 10181 10184 10184 10185 10185 10188 10191 10192 10193 10193 10194 10195 10194 10194 10195 10194 10193 10192 10191 10190 10188 10187 10186 10184 10182 10180 10178 10175 10172 10169 10166 10161 10157 10154 10149 10143 10138 10132 10127 10122 10115 10108 10101 10094 10087 10080 10072 10065
10161 10162 10163 10164 10165 10166 10168 10168 10169 10169 10170 10172 10173 10174 10175 10175 10175 10177 10177 10176 10176 10175 10174 10173 10172 10169 10167 10165 10163 10161 10159 10157 10155 10152 10149 10145 10141 10136 10131 10126 10121 10116 10110 10104 10097 10091 10085 10079 10073 10067 10061 10054 10046 10038
10147 10146 10147 10147 10148 10150 10148 10150 10150 10151 10151 10152 10152 10153 10153 10154 10155 10156 10156 10155 10154 10152 10151 10150 10149 10148 10145 10143 10141 10138 10136 10133 10130 10127 10123 10120 10116 10112 10106 10101 10095 10089 10083 10078 10071 10065 10059 10053 10047 10040 10034 10027 10020 10012
10127 10128 10128 10127 10127 10128 10128 10128 10128 10128 10129 10131 10131 10131 10131 10131 10131 10130 10130 10130 10129 10128 10128 10127 10125 10124 10123 10121 10118 10116 10113 10110 10107 10102 10098 10094 10089 10084 10080 10075 10069 10064 10058 10052 10046 10041 10034 10028 10022 10015 10008 10002 9995 9988
10108 10108 10110 10110 10109 10108 10108 10108 10107 10111 10109 10108 10110 10110 10110 10108 10108 10108 10108 10107 10107 10106 10105 10104 10103 10101 10099 10097 10095 10092 10089 10086 10082 10079 10074 10070 10065 10060 10055 10049 10044 10040 10034 10029 10023 10017 10011 10005 9998 9992 9985 9979 9973 9967
10094 10095 10094 10094 10092 10092 10091 10092 10093 10091 10093 10095 10093 10091 10091 10091 10090 10089 10088 10088 10087 10086 10085 10084 10082 10079 10077 10074 10072 10070 10067 10063 10060 10056 10052 10048 10044 10039 10033 10028 10023 10017 10010 10005 9999 9994 9988 9982 9976 9969 9964 9957 9951 9946
10080 10079 10079 10079 10078 10078 10077 10077 10077 10078 10077 10076 10076 10075 10074 10073 10073 10072 10071 10069 10069 10069 10068 10064 10062 10061 10058 10055 10053 10050 10048 10044 10040 10035 10030 10026 10022 10018 10013 10007 10002 9996 9991 9985 9980 9973 9968 9962 9956 9949 9943 9938 9931 9925
10067 10067 10066 10065 10065 10064 10064 10064 10063 10063 10063 10063 10063 10061 10060 10059 10058 10056 10054 10052 10051 10050 10049 10047 10044 10042 10041 10039 10035 10031 10029 10025 10020 10017 10012 10007 10002 9998 9993 9989 9984 9979 9973 9967 9961 9955 9950 9943 9937 9930 9924 9918 9913 9906
10054 10054 10053 10053 10053 10053 10051 10051 10050 10050 10051 10049 10048 10047 10046 10043 10042 10042 10039 10037 10037 10036 10033 10031 10029 10026 10023 10021 10019 10015 10012 10008 10004 10000 9997 9992 9987 9982 9976 9971 9964 9959 9953 9947 9941 9935 9929 9924 9919 9913 9907 9902 9897 9891
10044 10043 10043 10043 10042 10041 10040 10039 10038 10038 10039 10036 10034 10034 10032 10031 10030 10028 10026 10024 10022 10022 10020 10017 10014 10011 10009 10006 10002 9999 9996 9992 9989 9985 9981 9977 9972 9966 9960 9954 9948 9942 9937 9931 9926 9920 9914 9907 9902 9897 9892 9887 9881 9875
10035 10035 10034 10032 10032 10031 10031 10029 10029 10028 10026 10025 10024 10023 10021 10019 10017 10016 10014 10013 10011 10009 10006 10004 10001 9998 9995 9992 9988 9985 9982 9978 9974 9969 9964 9960 9955 9951 9946 9940 9935 9929 9923 9918 9911 9905 9899 9893 9888 9882 9877 9872 9867 9862